Location: Malanoce
(44.2500°N, 7.4667°E)
Time: 21:50:08
(UTC+00:00)

Sich 1 Rocket - Pass Details

Date: 17 November 2025
Orbit: 611 x 646 km, 82.5° (Epoch: 11 December)

Event Time Altitude Azimuth Distance (km) Brightness Sun altitude
Rises 17:44:39 0° 176° (S) 2,933 7.1 -18.4°
Reaches altitude 10° 17:46:54 10° 173° (S) 2,033 6.2 -18.8°
Maximum altitude 17:51:19 58° 95° (E) 756 3.6 -19.6°
Enters shadow 17:53:29 29° 27° (NNE) 1,195 4.7 -20.0°
